Weather in Asbest

Russia / Sverdlovsk Oblast     57°00′18″N   61°27′29″E
temp.,
°C
wind,
m/s
gust,
m/s
humid.,
%
clouds,
%
prec.,
mm/h
press.,
hPa
HPBL,
m
17 september, fri
fri1723:00+4w51094100 0.1 999978
02:00+4w51097100 1.3 998813
05:00+3wnw51097100 1.7 999657
08:00+4nw4997100 0.2 1000893
11:00+4nw4997100 0.4 1002975
14:00+4nw5997100 0.2 1004894
17:00+4nw4897100 0.3 1006834
20:00+4wnw399399 0.1 1007631
18 september, sat
sat1823:00+4wnw3893100 0.1 1008398
02:00+2wnw2693100 0.0 1008236
05:00+2w3696100 0.0 1009225
08:00+2w3694100 0.0 1009244
11:00+5w3472100 0.0 1008782
14:00+7wnw4656100 0.3 10081602
17:00+5nw596228 0.6 10081328
20:00+3wnw411786 0.0 1009639
19 september, sun
sun1923:00+1wnw5128267 0.0 1009669
02:00+1wnw51095100 0.1 1008781
05:00+1wnw51196100 0.3 1009724
08:00+2wnw5985100 0.3 10091009
11:00+4wnw6971100 0.3 10101019
14:00+5wnw6966100 0.0 10121110
17:00+5wnw61063100 0.0 10131298
20:00+4wnw61168100 0.0 1016948
20 september, mon
mon2023:00+2nw51074100 0.0 1018698
02:000wnw4118299 0.0 1020445
05:000nw4118819 0.0 1022474
08:00+1nw4108588 0.0 1024456
11:00+5nnw4662100 0.0 10261331
14:00+4nnw4662100 0.0 10281078
17:00+5nnw3565100 0.0 10291073
20:00+3nnw1372100 0.0 103085
21 september, tue
tue2123:00+3nw1172100 0.0 103126
02:00+3w2271100 0.0 103166
05:00+3w237077 0.0 103177
08:00+2w14765 0.0 1032126
11:00+7w23525 0.0 10311036
14:00+10w33435 0.0 10291253
17:00+10w34454 0.0 10291180
20:00+5wnw22700 0.0 102912